Weather History for EGXC - May, 2013

Change the Weather History Date:

Monday, May 27, 2013

  Actual Average Record
Temperature  
Mean Temperature 53 °F -  
Max Temperature 65 °F - - ()
Min Temperature 41 °F - - ()
Degree Days  
Heating Degree Days 12    
Growing Degree Days 3 (Base 50)    
Moisture  
Dew Point 37 °F    
Average Humidity 54    
Maximum Humidity 87    
Minimum Humidity 20    
Precipitation  
Precipitation 0.00 in - - ()
Sea Level Pressure  
Sea Level Pressure 29.72 in    
Wind  
Wind Speed 9 mph ()    
Max Wind Speed 22 mph    
Max Gust Speed -    
Visibility 14.0 miles    
Events      
T = Trace of Precipitation, MM = Missing Value Source: Averaged Metar Reports

Daily Weather History Graph

Daily Weather History Graph

Search for Another Location

Airport or City:

Trip Planner

Search our weather history database for the weather conditions in past years. The results will help you decide how hot, cold, wet, or windy it might be!

Date:

Astronomy

May. 27, 2013 Rise Set
Actual Time 4:45 AM BST 9:10 PM BST
Civil Twilight 3:58 AM BST 9:58 PM BST
Nautical Twilight 2:45 AM BST 11:11 PM BST
Astronomical Twilight 1:30 AM BST 12:25 AM BST
Moon 11:28 PM BST (5/27) 7:10 AM BST (5/27)
Length of Visible Light 18h 00m
Length of Day
16h 25m
Waning Gibbous, 92% of the Moon is Illuminated
May 27
Waning Gibbous
May 31
Last Quarter
Jun 8
New
Jun 16
First Quarter
Jun 23
Full

Hourly Weather History & Observations

Time (BST) Temp. Windchill Dew Point Humidity Pressure Visibility Wind Dir Wind Speed Gust Speed Precip Events Conditions
12:50 AM 48 °F - 41 °F 69% 29.88 in 12 mi SW 2.3 mph - -  
12:50 AM 48.2 °F - 41.0 °F 76% 29.86 in - SW 2.3 mph - N/A   Clear
1:50 AM 46.4 °F - 39.2 °F 76% 29.86 in - South 2.3 mph - N/A   Clear
2:50 AM 44.6 °F 40.7 °F 39.2 °F 81% 29.83 in - WSW 6.9 mph - N/A   Clear
3:50 AM 45 °F - 42 °F 84% 29.84 in 9 mi West 6.9 mph - -  
3:50 AM 44.6 °F 40.7 °F 41.0 °F 87% 29.83 in - West 6.9 mph - N/A   Clear
4:50 AM 44.6 °F 43.1 °F 41.0 °F 87% 29.80 in - WSW 3.5 mph - N/A   Clear
5:50 AM 42.8 °F 40.1 °F 39.2 °F 87% 29.80 in - SSW 4.6 mph - N/A   Clear
6:50 AM 47 °F - 40 °F 69% 29.80 in 14 mi SSW 5.8 mph - -   Clear
6:50 AM 46.4 °F 43.5 °F 41.0 °F 81% 29.80 in - SSW 5.8 mph - N/A   Clear
7:50 AM 50.0 °F - 39.2 °F 66% 29.77 in - SW 11.5 mph - N/A   Clear
8:50 AM 53.6 °F - 37.4 °F 54% 29.77 in - SW 16.1 mph - N/A   Clear
9:50 AM 56 °F - 36 °F 36% 29.75 in 16 mi SSW 16.1 mph - -   Clear
9:50 AM 55.4 °F - 37.4 °F 51% 29.74 in - SSW 16.1 mph - N/A   Clear
10:50 AM 59.0 °F - 35.6 °F 42% 29.71 in - SSW 17.3 mph - N/A   Clear
11:50 AM 60.8 °F - 33.8 °F 36% 29.71 in - SSW 19.6 mph - N/A   Clear
12:50 PM 62 °F - 40 °F 33% 29.70 in 19 mi South 18.4 mph - -   Scattered Clouds
12:50 PM 62.6 °F - 41.0 °F 45% 29.68 in - South 18.4 mph - N/A   Clear
1:50 PM 62.6 °F - 39.2 °F 42% 29.65 in - SSW 19.6 mph - N/A   Clear
2:50 PM 64.4 °F - 37.4 °F 37% 29.65 in - South 21.9 mph - N/A   Clear
3:50 PM 64 °F - 36 °F 23% 29.65 in 25 mi SSW 21.9 mph - -   Scattered Clouds
3:50 PM 64.4 °F - 35.6 °F 34% 29.62 in - SSW 21.9 mph - N/A   Clear
4:50 PM 64.4 °F - 33.8 °F 32% 29.62 in - SSW 21.9 mph - N/A   Clear
5:50 PM 64.4 °F - 33.8 °F 32% 29.62 in - South 20.7 mph - N/A   Clear
6:50 PM 62 °F - 31 °F 20% 29.62 in 22 mi SSW 20.7 mph - -   Scattered Clouds
6:50 PM 62.6 °F - 30.2 °F 30% 29.62 in - SSW 20.7 mph - N/A   Clear
7:50 PM 57.2 °F - 33.8 °F 41% 29.62 in - SSW 13.8 mph - N/A   Clear
8:50 PM 53.6 °F - 37.4 °F 54% 29.62 in - South 6.9 mph - N/A   Clear
9:50 PM 50 °F - 34 °F 43% 29.64 in 22 mi South 5.8 mph - -   Scattered Clouds
9:50 PM 50.0 °F - 33.8 °F 54% 29.62 in - South 5.8 mph - N/A   Clear
10:50 PM 46.4 °F 42.9 °F 33.8 °F 62% 29.62 in - SSE 6.9 mph - N/A   Clear
11:50 PM 46.4 °F 43.5 °F 33.8 °F 62% 29.65 in - South 5.8 mph - N/A   Clear